STARLINK-2214, 48566

Orbit data source: Space-Track

STARLINK-2214, 48566 is a payload satellite owned by SpaceX/Seattle (US) in LEO that was launched on Sat, 15 May 2021 UTC via an FALCON 9 launch vehicle from the Air Force Eastern Test Range (AFETR). Payload-class satellites include a variety of spacecraft equipped with specific instruments for various scientific and technological missions. These include communications satellites like Starlink; space stations such as the ISS; scientific satellites like the Hubble; Earth observation satellites from companies like Planet Labs, Umbra, and HawkEye 360; GPS; miniature CubeSats for education and research; and military/defense satellites.

Loading next visibility...
Identifier
48566, 2021-041P
Orbit
LEO
Country
Flag of USUS
Related business
Manufacturer
SpaceX/Seattle
Mission
Operational Commercial Communications
Bus & Motor
STARLINK, Unknown motor
Mass
260 kg wet, ~248 kg dry
Launch date (UTC)
2021-05-15 (5 years ago)
Launch vehicle
FALCON 9
Launch site
Air Force Eastern Test Range (AFETR)
Object type
Payload
Rocket body
Debris
Shape & HBR
Box + 1 Pan, 10.1 m
Radar Cross Section
13.562 m², Large (>1 m²)

Expand to show TLE details & history
Last TLE update: 2 days ago

TLE from 2 days ago
0 STARLINK-2214
1 48566U 21041P   26171.32702713  .00001637  00000-0  64496-4 0  9999
2 48566  53.1617  31.4191 0001221  89.4263 270.6878 15.31704108280672
Epoch: 2026-06-20T07:50Z
TLE epoch observation values (Epoch: 2026-06-20T07:50:55.144Z)
Latitude
-0.00003°
Longitude
5.14607°
Altitude
471.618 km
Speed
7.631 km/s
True Right ascension
02h 05m 40s
True Declination
0° 00' 00"
Sunlit
Object was in daylight at epoch
Visualization orbit readout
Latitude
Unknown
Longitude
Unknown
Altitude
Unknown
Speed
Unknown
Apparent Right ascension
Unknown
Apparent Declination
Unknown
Sunlit
N/A
Visualization observer readout
Local Sidereal Time
21:40:52
Azimuth
Unknown
Elevation
Unknown
Doppler factor
Unknown
Orbital elements
Apogee altitude
471.82 km
Perigee altitude
470.148 km
Semi-major axis
6,849.121 km
Eccentricity
0.00012
Inclination
53.1617°
RAAN
31.4191°
Arg. of periapsis
89.4263°
True anomaly
270.67381°
Mean anomaly
270.6878°
Eccentric anomaly
270.6808°
Mean motion
3.82905 °/min
Orbital period
94.02 mins
BSTAR
0.000064496
Loading maneuver chart data...
Computing Atmospheric mass density...
Loading historical data...
Loading historical data...
Loading historical data...
Loading historical data...
Loading historical data...
Loading historical data...
Loading historical data...

Documentation

Showing up to 5 results
|